METEOR 2-6 DEB, 43298

Orbit data source: Space-Track

METEOR 2-6 DEB, 43298 is space debris in LEO originally from a launch on Tue, 09 Sep 1980 UTC launched from the Plesetsk Missile And Space Complex (PKMTR). Debris objects in space refer to the collection of defunct objects orbiting the Earth. Examples of debris include non-operational satellites, rocket bodies, and fragments generated from explosions, collisions, or faulty payload assembly.

Loading next visibility...
Identifier
43298, 1980-073S
Orbit
LEO
Country
Flag of CISCIS
Related business
Manufacturer
Unknown
Mission
Spacecraft
Bus & Motor
Unknown
Mass
Unknown
Launch date (UTC)
1980-09-09 (45 years ago)
Launch vehicle
Unknown
Launch site
Plesetsk Missile And Space Complex (PKMTR)
Object type
Payload
Rocket body
Debris
Shape & HBR
Unknown
Radar Cross Section
Small (<0.1 m²)

Expand to show TLE details & history
Last TLE update: 11 months ago

TLE from 11 months ago
0 METEOR 2-6 DEB
1 43298U 80073S   24287.24401138  .00019749  00000-0  64615-2 0  9994
2 43298  81.2106 260.2378 0010782 327.6201  32.4322 14.38355592551689
Epoch: 2024-10-13T05:51Z
TLE epoch observation values (Epoch: 2024-10-13T05:51:22.583Z)
Latitude
-0.00005°
Longitude
150.10541°
Altitude
760.375 km
Speed
7.478 km/s
True Right ascension
17h 20m 57s
True Declination
0° 00' 00"
Sunlit
Object was in daylight at epoch
Visualization orbit readout
Latitude
Unknown
Longitude
Unknown
Altitude
Unknown
Speed
Unknown
Apparent Right ascension
Unknown
Apparent Declination
Unknown
Sunlit
N/A
Visualization observer readout
Local Sidereal Time
03:38:15
Azimuth
Unknown
Elevation
Unknown
Doppler factor
Unknown
Orbital elements
Apogee altitude
768.772 km
Perigee altitude
753.377 km
Semi-major axis
7,139.212 km
Eccentricity
0.00108
Inclination
81.2106°
RAAN
260.2378°
Arg. of periapsis
327.6201°
True anomaly
32.49854°
Mean anomaly
32.4322°
Eccentric anomaly
32.46536°
Mean motion
3.59805 °/min
Orbital period
100.05 mins
BSTAR
0.0064615
Loading maneuver chart data...
Computing Atmospheric mass density...
Loading historical data...
Loading historical data...
Loading historical data...
Loading historical data...
Loading historical data...
Loading historical data...
Loading historical data...

Documentation

Showing up to 5 results
|